Time,TemperatureF,DewpointF,PressureIn,WindDirection,WindDirectionDegrees,WindSpeedMPH,WindSpeedGustMPH,Humidity,HourlyPrecipIn,Conditions,Clouds,dailyrainin,SoftwareType,DateUTC
2013-08-29 00:12:00,73.0,49.0,30.05,NW,313,10.0,14.0,43,0.00,,,0.00,,2013-08-29 06:12:00,
2013-08-29 00:21:00,70.0,49.0,30.05,NNW,340,9.0,16.0,47,0.00,,,0.00,,2013-08-29 06:21:00,
2013-08-29 00:43:00,68.0,48.0,30.06,North,349,8.0,11.0,49,0.00,,,0.00,,2013-08-29 06:43:00,
2013-08-29 00:52:00,68.0,50.0,30.06,North,360,8.0,10.0,52,0.00,,,0.00,,2013-08-29 06:52:00,
2013-08-29 01:12:00,67.0,50.0,30.06,NNW,337,7.0,10.0,54,0.00,,,0.00,,2013-08-29 07:12:00,
2013-08-29 01:21:00,68.0,49.0,30.07,NNW,327,7.0,11.0,51,0.00,,,0.00,,2013-08-29 07:21:00,
2013-08-29 01:42:00,66.0,48.0,30.08,NNW,341,5.0,6.0,52,0.00,,,0.00,,2013-08-29 07:42:00,
2013-08-29 01:53:00,69.0,50.0,30.08,NW,311,10.0,12.0,50,0.00,,,0.00,,2013-08-29 07:53:00,
2013-08-29 02:12:00,68.0,50.0,30.07,NW,317,11.0,13.0,52,0.00,,,0.00,,2013-08-29 08:12:00,
2013-08-29 02:22:00,70.0,50.0,30.07,WNW,285,12.0,15.0,50,0.00,,,0.00,,2013-08-29 08:22:00,
2013-08-29 02:42:00,70.0,50.0,30.08,NNW,346,4.0,15.0,49,0.00,,,0.00,,2013-08-29 08:42:00,
2013-08-29 02:52:00,65.0,49.0,30.08,North,355,6.0,8.0,57,0.00,,,0.00,,2013-08-29 08:52:00,
2013-08-29 03:12:00,63.0,49.0,30.08,NNW,337,7.0,8.0,60,0.00,,,0.00,,2013-08-29 09:12:00,
2013-08-29 03:21:00,62.0,47.0,30.08,NNW,336,8.0,9.0,59,0.00,,,0.00,,2013-08-29 09:21:00,
2013-08-29 03:43:00,65.0,48.0,30.09,NW,308,9.0,10.0,55,0.00,,,0.00,,2013-08-29 09:43:00,
2013-08-29 03:55:00,68.0,49.0,30.09,NW,321,9.0,11.0,50,0.00,,,0.00,,2013-08-29 09:55:00,
2013-08-29 04:14:00,67.0,49.0,30.09,NNW,328,5.0,8.0,52,0.00,,,0.00,,2013-08-29 10:14:00,
2013-08-29 04:24:00,68.0,49.0,30.10,NW,317,5.0,7.0,51,0.00,,,0.00,,2013-08-29 10:24:00,
2013-08-29 05:12:00,68.0,48.0,30.11,NE,53,7.0,10.0,48,0.00,,,0.00,,2013-08-29 11:12:00,
2013-08-29 05:22:00,67.0,48.0,30.11,NNE,24,5.0,8.0,50,0.00,,,0.00,,2013-08-29 11:22:00,
2013-08-29 05:42:00,66.0,48.0,30.11,NNE,26,0.0,4.0,53,0.00,,,0.00,,2013-08-29 11:42:00,
2013-08-29 05:52:00,63.0,48.0,30.12,NNE,26,1.0,3.0,57,0.00,,,0.00,,2013-08-29 11:52:00,
2013-08-29 06:11:00,64.0,48.0,30.13,NNE,26,0.0,4.0,56,0.00,,,0.00,,2013-08-29 12:11:00,
2013-08-29 06:22:00,64.0,47.0,30.13,NNE,26,0.0,0.0,55,0.00,,,0.00,,2013-08-29 12:22:00,
2013-08-29 06:42:00,62.0,48.0,30.13,NNE,26,2.0,5.0,61,0.00,,,0.00,,2013-08-29 12:42:00,
2013-08-29 06:52:00,62.0,48.0,30.14,NNE,22,2.0,5.0,60,0.00,,,0.00,,2013-08-29 12:52:00,
2013-08-29 07:12:00,59.0,48.0,30.14,NNE,22,4.0,6.0,66,0.00,,,0.00,,2013-08-29 13:12:00,
2013-08-29 07:22:00,60.0,48.0,30.15,NNE,19,2.0,5.0,64,0.00,,,0.00,,2013-08-29 13:22:00,
2013-08-29 07:42:00,59.0,46.0,30.15,NNE,21,3.0,5.0,63,0.00,,,0.00,,2013-08-29 13:42:00,
2013-08-29 07:52:00,63.0,49.0,30.15,NNE,19,4.0,5.0,60,0.00,,,0.00,,2013-08-29 13:52:00,
2013-08-29 08:11:00,64.0,50.0,30.16,NNE,20,4.0,5.0,61,0.00,,,0.00,,2013-08-29 14:11:00,
2013-08-29 08:21:00,64.0,49.0,30.16,NNE,16,2.0,5.0,59,0.00,,,0.00,,2013-08-29 14:21:00,
2013-08-29 08:42:00,67.0,53.0,30.16,NNE,17,2.0,5.0,60,0.00,,,0.00,,2013-08-29 14:42:00,
2013-08-29 08:52:00,69.0,51.0,30.17,East,96,0.0,5.0,53,0.00,,,0.00,,2013-08-29 14:52:00,
2013-08-29 09:11:00,71.0,52.0,30.17,East,96,0.0,4.0,51,0.00,,,0.00,,2013-08-29 15:11:00,
2013-08-29 09:21:00,72.0,51.0,30.17,East,97,2.0,4.0,47,0.00,,,0.00,,2013-08-29 15:21:00,
2013-08-29 09:43:00,74.0,52.0,30.17,East,98,1.0,4.0,46,0.00,,,0.00,,2013-08-29 15:43:00,
2013-08-29 09:53:00,74.0,52.0,30.17,ESE,121,2.0,5.0,47,0.00,,,0.00,,2013-08-29 15:53:00,
2013-08-29 10:13:00,75.0,52.0,30.17,ESE,123,0.0,0.0,45,0.00,,,0.00,,2013-08-29 16:13:00,
2013-08-29 10:24:00,76.0,52.0,30.17,ESE,117,0.0,4.0,44,0.00,,,0.00,,2013-08-29 16:24:00,
2013-08-29 10:43:00,77.0,55.0,30.17,SE,140,0.0,2.0,46,0.00,,,0.00,,2013-08-29 16:43:00,
2013-08-29 10:53:00,78.0,53.0,30.17,ESE,117,2.0,7.0,42,0.00,,,0.00,,2013-08-29 16:53:00,
2013-08-29 11:13:00,79.0,51.0,30.17,SSE,151,6.0,8.0,38,0.00,,,0.00,,2013-08-29 17:13:00,
2013-08-29 11:22:00,79.0,51.0,30.16,SE,128,5.0,9.0,38,0.00,,,0.00,,2013-08-29 17:22:00,
2013-08-29 11:43:00,80.0,51.0,30.16,SE,133,8.0,11.0,37,0.00,,,0.00,,2013-08-29 17:43:00,
2013-08-29 11:52:00,80.0,51.0,30.16,SE,144,8.0,12.0,37,0.00,,,0.00,,2013-08-29 17:52:00,
2013-08-29 12:11:00,81.0,52.0,30.16,SSE,159,8.0,11.0,36,0.00,,,0.00,,2013-08-29 18:11:00,
2013-08-29 12:21:00,81.0,53.0,30.16,ESE,122,6.0,11.0,38,0.00,,,0.00,,2013-08-29 18:21:00,
2013-08-29 12:42:00,82.0,49.0,30.16,ESE,121,7.0,11.0,32,0.00,,,0.00,,2013-08-29 18:42:00,
2013-08-29 12:52:00,82.0,52.0,30.15,SE,140,6.0,12.0,36,0.00,,,0.00,,2013-08-29 18:52:00,
2013-08-29 13:11:00,83.0,52.0,30.14,SE,126,6.0,11.0,34,0.00,,,0.00,,2013-08-29 19:11:00,
2013-08-29 13:22:00,83.0,53.0,30.14,SE,130,3.0,12.0,36,0.00,,,0.00,,2013-08-29 19:22:00,
2013-08-29 13:42:00,83.0,49.0,30.13,SE,126,6.0,8.0,31,0.00,,,0.00,,2013-08-29 19:42:00,
2013-08-29 13:52:00,84.0,52.0,30.12,ESE,108,6.0,12.0,33,0.00,,,0.00,,2013-08-29 19:52:00,
2013-08-29 14:12:00,84.0,49.0,30.11,SE,126,7.0,11.0,30,0.00,,,0.00,,2013-08-29 20:12:00,
2013-08-29 14:21:00,85.0,53.0,30.11,ESE,113,4.0,10.0,33,0.00,,,0.00,,2013-08-29 20:21:00,
2013-08-29 14:42:00,86.0,50.0,30.10,SSE,149,9.0,14.0,29,0.00,,,0.00,,2013-08-29 20:42:00,
2013-08-29 14:52:00,86.0,51.0,30.09,ESE,110,8.0,10.0,30,0.00,,,0.00,,2013-08-29 20:52:00,
2013-08-29 15:11:00,87.0,50.0,30.08,ESE,117,6.0,12.0,28,0.00,,,0.00,,2013-08-29 21:11:00,
2013-08-29 15:22:00,87.0,51.0,30.08,ESE,106,0.0,6.0,29,0.00,,,0.00,,2013-08-29 21:22:00,
2013-08-29 15:43:00,85.0,50.0,30.08,ESE,109,4.0,6.0,30,0.00,,,0.00,,2013-08-29 21:43:00,
2013-08-29 15:54:00,85.0,55.0,30.08,SSE,157,6.0,9.0,36,0.00,,,0.00,,2013-08-29 21:54:00,
2013-08-29 16:14:00,86.0,50.0,30.07,SE,141,7.0,12.0,29,0.00,,,0.00,,2013-08-29 22:14:00,
2013-08-29 16:24:00,86.0,48.0,30.09,West,271,3.0,5.0,27,0.00,,,0.00,,2013-08-29 22:24:00,
2013-08-29 17:22:00,76.0,55.0,30.17,West,271,7.0,15.0,48,0.00,,,0.00,,2013-08-29 23:22:00,
2013-08-29 17:53:00,74.0,57.0,30.10,North,360,13.0,18.0,55,0.00,,,0.00,,2013-08-29 23:53:00,
2013-08-29 18:12:00,76.0,55.0,30.14,NNE,22,4.0,13.0,49,0.00,,,0.00,,2013-08-30 00:12:00,
2013-08-29 18:21:00,77.0,58.0,30.14,NE,38,0.0,0.0,52,0.00,,,0.00,,2013-08-30 00:21:00,
2013-08-29 18:42:00,78.0,54.0,30.14,NW,314,9.0,13.0,44,0.00,,,0.00,,2013-08-30 00:42:00,
2013-08-29 19:12:00,78.0,56.0,30.12,NNW,340,9.0,15.0,46,0.00,,,0.00,,2013-08-30 01:12:00,
2013-08-29 19:21:00,78.0,55.0,30.11,WNW,299,10.0,13.0,45,0.00,,,0.00,,2013-08-30 01:21:00,
2013-08-29 19:52:00,77.0,56.0,30.14,South,179,9.0,15.0,48,0.00,,,0.00,,2013-08-30 01:52:00,
2013-08-29 20:11:00,72.0,55.0,30.14,South,187,0.0,8.0,56,0.00,,,0.00,,2013-08-30 02:11:00,
2013-08-29 20:21:00,71.0,57.0,30.14,SE,144,0.0,1.0,61,0.00,,,0.00,,2013-08-30 02:21:00,
2013-08-29 20:42:00,70.0,55.0,30.13,SSE,167,0.0,0.0,59,0.00,,,0.00,,2013-08-30 02:42:00,
2013-08-29 20:52:00,72.0,54.0,30.12,SW,226,0.0,0.0,54,0.00,,,0.00,,2013-08-30 02:52:00,
2013-08-29 21:12:00,70.0,55.0,30.12,SSW,201,0.0,0.0,59,0.00,,,0.00,,2013-08-30 03:12:00,
2013-08-29 21:22:00,68.0,54.0,30.12,SE,146,0.0,0.0,62,0.00,,,0.00,,2013-08-30 03:22:00,
2013-08-29 21:55:00,63.0,52.0,30.13,NNW,328,0.0,0.0,67,0.00,,,0.00,,2013-08-30 03:55:00,
2013-08-29 22:14:00,65.0,53.0,30.12,NNW,328,0.0,0.0,66,0.00,,,0.00,,2013-08-30 04:14:00,
2013-08-29 22:24:00,66.0,53.0,30.12,NNW,328,0.0,0.0,64,0.00,,,0.00,,2013-08-30 04:24:00,
2013-08-29 22:54:00,66.0,54.0,30.11,NNW,328,0.0,0.0,66,0.00,,,0.00,,2013-08-30 04:54:00,
2013-08-29 23:12:00,66.0,54.0,30.11,NNW,328,0.0,0.0,66,0.00,,,0.00,,2013-08-30 05:12:00,
2013-08-29 23:23:00,62.0,52.0,30.12,NNW,340,8.0,10.0,69,0.00,,,0.00,,2013-08-30 05:23:00,
2013-08-29 23:42:00,66.0,55.0,30.12,NNW,340,0.0,0.0,68,0.00,,,0.00,,2013-08-30 05:42:00,
2013-08-29 23:52:00,62.0,51.0,30.12,NNW,340,0.0,0.0,66,0.00,,,0.00,,2013-08-30 05:52:00,